Main Menu

Like Us on Facebook

Search

Login

Username:

Password:


Lost Password?

Register now!

Forecast for your location

Detailed conditions for your location

Current US satellite images

Current US radar image

Current US warnings and watches

Various US weather maps

The raw METAR code for this location is KSFO 242356Z VRB03KT 10SM SCT017 BKN180 21/14 A2989 RMK AO2 PK WND 22026/2312 SLP121 T02060144 10228 20200 58007

Decoded METAR for this location (may not be available)